Regional Weather Roundup
Issued by NWS

Home | Current Version | Previous Version | Text Only | Print | Product List | Glossary On
Versions: 1 2 3 4 5 6 7 8 9 10 11 12 13 14 15 16 17 18 19 20 21 22 23 24 25 26 27 28 29 30 31 32 33 34 35 36 37 38 39 40 41 42 43 44 45 46 47 48 49 50
000
ASUS44 KJAN 232010
RWRMS

MISSISSIPPI HOURLY WEATHER ROUNDUP
NATIONAL WEATHER SERVICE JACKSON MS
200 PM CST THU NOV 23 2017

NOTE: "FAIR: INDICATES FEW OR NO CLOUDS BELOW 12,000 FEET WITH NO
SIGNIFICANT WEATHER AND/OR OBSTRUCTIONS TO VISIBILITY.

MSZ001>002-007>008-010>013-018>021-025>028-034>036-232100-
NORTHWEST MISSISSIPPI

CITY           SKY/WX    TMP DP  RH WIND       PRES   REMARKS
BATESVILLE     FAIR      56  16  21 NW3       30.08F
CLARKSDALE       N/A     54  25  32 N5        30.09F
CLEVELAND      FAIR      53  24  31 CALM      30.08F
GREENWOOD      SUNNY     57  25  29 VRB5      30.08F
GREENVILLE     SUNNY     56  20  24 N7        30.09F
OLIVE BRANCH   SUNNY    N/A N/A N/A CALM      30.05F
OXFORD         FAIR      55  19  24 CALM      30.07F
TUNICA           N/A    N/A N/A N/A CALM      30.10S
WINONA         FAIR      56  21  26 N7        30.06F
$$

MSZ003>006-009-014>017-022>024-029>033-037>039-232100-
NORTHEAST MISSISSIPPI

CITY           SKY/WX    TMP DP  RH WIND       PRES   REMARKS
ABERDEEN       FAIR      57  37  47 N8        30.05F
COLUMBUS AFB   SUNNY     58  26  30 NW7       30.03F
CORINTH        FAIR      55  19  24 N6        30.05F
GOLDN TRIANGLE SUNNY     58  23  26 NW13      30.05F
STARKVILLE     FAIR      57  21  24 NW8       30.06F
TUPELO         SUNNY     55  17  22 N7        30.05F
$$

MSZ040-058-232100-
CENTRAL MISSISSIPPI

CITY           SKY/WX    TMP DP  RH WIND       PRES   REMARKS
JACKSON INTL   SUNNY     61  23  23 NW7       30.05F
JACKSON HAWKNS SUNNY     58  22  24 N8        30.05F
MADISON        FAIR      55  25  30 NW3       30.05F
MERIDIAN KEY   SUNNY     62  20  19 N8        30.02F
MERIDIAN NAS   SUNNY     61  18  18 N9        30.03F
RAYMOND        FAIR      59  48  67 NW7       30.05F
VICKSBURG VKS  CLEAR     57  23  26 VRB7      30.09F
$$

MSZ059>079-232100-
SOUTH MISSISSIPPI

CITY           SKY/WX    TMP DP  RH WIND       PRES   REMARKS
COLUMBIA       FAIR      61  27  27 N8G15     30.07F
HATTIESBURG    SUNNY     61  27  27 N12       30.02F
LAUREL         FAIR      60  26  26 N7        30.04S
MCCOMB         SUNNY     59  21  23 N13       30.04F
NATCHEZ        SUNNY     56  25  30 N10       30.08F
PINE BELT      SUNNY     61  26  26 N9        30.03F
$$

MSZ080>082-232100-
COASTAL MISSISSIPPI

CITY           SKY/WX    TMP DP  RH WIND       PRES   REMARKS
BAY ST LOUIS   SUNNY     63  28  27 N12G18    29.99F
BILOXI         SUNNY     64  31  30 N15       29.97F
PASCAGOULA     SUNNY     64  31  28 N13G20    29.97F
GULFPORT       SUNNY     64  30  27 N10       29.98F
$$

LAZ007>009-015>016-023>026-232100-
NORTHEAST LOUISIANA

CITY           SKY/WX    TMP DP  RH WIND       PRES   REMARKS
BASTROP        FAIR      59  22  24 N6        30.10F
TALLULAH/VBURG SUNNY     57  22  25 N9        30.08F
VIDALIA          N/A    N/A N/A N/A MISG      30.07F
$$



USA.gov is the U.S. government's official web portal to all federal, state and local government web resources and services.